Temperature
21 22 22 22 22 21 21 20 20 20 19 19 19 18 19 19 19 19 19 20 20 20 19 19 19 19 19 18 18 18 18 17 17 17 16 16 16 15 15 15 15 15 15 15
22 22 22 22 22 21 21 20 20 20 19 19 19 19 18 18 19 19 19 19 19 19 19 19 19 18 18 18 18 18 17 17 17 16 16 16 15 15 15 15 15 14 14 14
20 21 22 21 21 21 21 20 19 20 19 18 18 17 18 18 18 18 19 19 19 19 19 19 18 18 18 17 17 17 17 17 17 16 16 15 15 15 15 15 15 14 14 14
18 20 21 20 20 21 20 20 19 19 18 18 18 19 19 19 19 19 19 19 19 19 19 18 18 18 17 17 17 17 17 16 16 16 15 15 15 15 14 14 14 14 14 14
16 18 19 20 20 20 20 20 19 19 18 18 18 18 18 19 19 19 19 19 19 19 18 18 18 18 17 17 17 16 16 16 16 16 15 15 15 14 14 14 14 14 14 13
16 19 19 20 21 20 20 19 19 18 18 18 18 17 17 19 19 19 19 18 18 18 18 18 18 17 17 17 16 16 16 15 15 15 15 14 14 14 14 14 14 13 13 13
16 18 18 19 19 20 20 19 19 19 19 18 18 18 19 19 19 19 18 18 18 18 18 17 17 17 17 16 16 16 15 15 15 14 14 14 14 13 13 13 13 13 13 13
15 17 18 18 19 19 18 19 19 19 19 19 19 19 19 19 18 18 18 18 18 17 17 17 17 16 16 16 16 15 15 15 14 14 14 13 13 13 13 13 13 13 13 13
15 16 17 17 18 19 19 19 19 19 19 19 18 18 18 18 18 18 18 17 17 17 17 16 16 16 16 16 15 15 14 14 14 14 13 13 13 13 13 13 13 13 12 12
14 15 16 17 18 19 19 19 19 19 19 19 19 18 18 18 17 17 17 17 17 17 16 16 16 16 15 15 15 14 14 14 13 13 13 13 13 12 12 12 12 12 12 12
14 15 16 18 18 18 19 19 19 19 19 19 19 18 18 17 17 17 17 16 16 16 16 16 15 15 15 15 14 14 14 13 13 13 13 12 12 12 12 12 12 12 12 12
14 15 15 17 18 18 18 18 18 18 18 18 18 18 17 17 17 16 16 16 16 16 15 15 15 15 15 14 14 14 13 13 13 12 12 12 12 12 12 12 11 11 11 11
16 17 17 17 17 18 18 18 18 18 17 17 17 17 17 17 16 16 16 15 15 15 15 15 14 14 14 14 14 13 13 13 12 12 12 12 12 12 12 12 12 12 11 11
16 16 16 17 17 17 17 17 17 17 17 17 17 17 16 16 16 15 15 15 15 15 14 14 14 14 14 13 13 13 13 13 12 12 12 12 12 11 11 11 11 11 11 11
16 16 16 16 16 16 17 17 16 16 16 16 16 16 16 15 15 15 15 15 14 14 14 14 14 14 13 13 13 13 13 12 12 12 12 12 11 11 11 11 11 11 11 11
16 16 16 16 16 16 16 16 16 16 16 16 15 15 15 15 15 15 14 14 14 14 14 14 13 13 13 13 13 13 12 12 12 12 12 11 11 11 11 11 10 10 10 10
15 15 15 15 15 15 15 15 16 15 15 15 15 15 15 15 14 14 14 14 14 14 13 13 13 13 13 13 12 12 12 12 12 12 11 11 11 11 11 10 10 10 10 10
15 15 15 15 15 15 15 15 15 15 15 15 15 14 14 14 14 14 14 13 13 13 13 13 13 13 12 12 12 12 12 12 11 11 11 11 11 10 10 10 10 10 10 10
14 14 14 14 14 14 14 14 14 14 14 14 14 14 14 14 14 14 13 13 13 13 13 13 13 12 12 12 12 12 12 11 11 11 11 11 10 10 10 10 10 9 9 9
14 14 14 14 14 14 14 14 14 14 14 14 14 14 14 13 13 13 13 13 13 13 13 12 12 12 12 12 12 12 11 11 11 11 10 10 10 10 10 10 10 9 9 9
13 13 13 14 14 14 14 14 14 14 14 14 14 14 13 13 13 13 13 13 13 12 12 12 12 12 12 12 12 11 11 11 11 10 10 10 10 10 10 10 9 9 9 9
13 13 13 13 14 14 14 14 14 14 14 14 13 13 13 13 13 13 13 13 12 12 12 12 12 12 12 11 11 11 11 11 10 10 10 10 10 10 10 9 9 9 9 9
12 12 13 13 13 14 13 13 13 13 13 13 13 13 13 13 13 13 12 12 12 12 12 12 12 12 11 11 11 11 11 11 10 10 10 10 10 9 9 9 9 9 9 9
12 12 12 13 13 13 13 13 13 13 13 13 13 13 13 13 13 12 12 12 12 12 12 12 12 11 11 11 11 11 10 10 10 10 10 10 9 9 9 9 9 9 9 8
12 12 12 12 13 13 13 13 13 13 13 13 13 13 12 12 12 12 12 12 12 12 11 11 11 11 11 11 11 10 10 10 10 10 10 9 9 9 9 9 9 9 8 8
12 12 12 12 13 13 13 13 13 13 13 13 13 12 12 12 12 12 12 12 12 11 11 11 11 11 11 11 10 10 10 10 10 10 9 9 9 9 9 9 9 8 8 8
12 12 12 12 12 12 12 12 12 12 12 12 12 12 12 12 12 12 12 12 11 11 11 11 11 11 10 10 10 10 10 10 9 9 9 9 9 9 8 8 8 8 8 8
Wind_Speed
4 3 3 3 3 4 5 7 8 7 7 8 6 6 5 4 3 3 2 2 2 3 2 2 2 2 3 2 2 3 3 2 2 1 1 0 0 1 1 1 1 1 1 2
2 2 1 1 3 4 4 3 4 3 5 5 2 2 3 4 5 4 3 2 2 2 2 2 3 3 3 2 2 3 3 3 2 1 1 0 0 0 1 1 1 1 1 1
3 3 2 3 5 5 3 3 5 6 7 3 3 5 6 6 5 4 4 2 2 3 3 3 3 3 3 3 2 2 2 2 2 2 1 1 1 0 0 1 1 1 2 2
2 2 4 7 3 4 4 2 3 4 4 5 6 4 3 4 6 5 4 3 2 2 2 2 2 2 2 2 2 2 1 1 2 2 1 1 1 0 0 1 1 1 2 2
4 3 5 6 3 3 3 3 3 4 3 2 4 4 1 1 4 5 5 3 3 3 2 2 2 3 3 2 2 1 1 1 1 2 2 1 1 1 1 0 1 1 1 1
4 4 7 7 2 0 3 3 3 5 5 4 4 2 4 3 2 2 1 1 1 2 2 2 1 3 4 3 2 1 2 2 1 2 2 2 1 1 0 0 0 1 2 1
4 4 7 5 3 1 3 6 3 3 4 5 5 5 3 2 2 2 1 2 2 3 2 1 2 3 4 3 2 2 1 1 1 1 2 2 1 1 0 1 1 1 2 2
4 3 6 3 1 3 5 2 1 2 3 3 2 1 2 2 2 2 2 1 3 3 1 1 2 4 3 2 2 1 2 1 1 0 1 1 1 1 1 1 1 1 2 3
6 6 4 3 2 2 1 1 1 1 1 2 2 1 1 2 2 2 2 2 2 3 2 1 1 3 3 2 1 2 2 1 1 1 1 1 1 1 1 1 0 1 2 2
2 4 3 3 2 2 1 0 1 0 2 3 3 2 2 2 2 2 2 2 2 3 2 1 0 1 2 2 2 3 2 1 0 1 1 1 1 1 0 0 0 1 1 2
2 4 3 3 2 2 3 3 3 3 1 2 3 3 4 4 3 2 2 2 3 3 2 1 1 0 1 2 3 3 2 1 0 0 0 1 1 1 2 2 2 2 3 3
5 5 3 4 4 2 2 2 2 1 2 1 3 5 4 5 4 3 3 2 2 2 2 2 1 1 1 2 4 4 2 1 1 0 0 0 1 2 3 2 3 3 3 3
5 3 3 3 3 2 1 1 1 1 1 0 1 3 4 4 3 4 3 3 3 3 2 2 2 2 1 2 3 3 3 2 1 1 1 1 0 1 2 4 4 3 3 4
4 1 1 2 3 3 1 1 2 2 2 1 1 2 3 3 3 4 4 4 3 2 2 2 2 2 2 2 3 3 3 3 2 2 2 2 2 1 1 1 3 4 4 4
3 2 3 2 2 2 1 2 2 2 2 2 2 2 3 3 3 3 2 2 3 2 1 2 2 2 1 2 3 3 2 2 2 2 1 2 1 1 1 2 2 3 3 4
2 1 0 0 1 2 1 0 1 2 1 0 1 1 2 3 3 2 2 3 4 3 3 2 3 3 2 2 2 2 2 2 2 1 1 1 1 1 2 2 2 2 3 3
2 2 1 2 3 3 3 3 3 3 2 2 1 1 2 3 2 2 1 1 2 3 3 3 3 2 2 2 3 2 2 2 2 1 2 2 2 3 2 2 2 3 3 4
4 5 5 5 5 4 4 2 2 2 2 2 1 1 2 3 4 3 2 1 1 0 2 3 2 2 1 2 2 2 2 2 2 2 2 2 3 3 2 3 3 3 3 3
2 3 3 3 3 3 3 2 2 1 1 2 2 2 2 2 3 2 2 2 2 2 3 2 2 2 2 2 2 2 2 2 2 2 2 2 2 2 2 3 3 3 3 3
2 2 2 2 2 2 3 2 2 2 2 2 2 1 1 1 2 2 2 2 3 3 3 2 2 2 2 2 2 2 2 3 3 2 2 2 3 3 3 3 3 4 4 4
2 3 2 1 1 1 2 3 3 2 2 2 3 3 2 2 1 2 2 1 2 2 1 2 2 2 2 2 2 2 2 3 3 3 3 3 3 3 3 4 4 4 4 4
2 2 3 2 1 1 1 1 2 2 2 1 1 1 1 1 1 1 2 3 3 2 1 1 1 1 1 1 2 2 2 3 3 2 2 2 3 3 3 4 4 4 3 3
2 2 2 2 2 1 1 1 2 2 2 3 3 3 3 3 2 2 2 2 1 2 1 1 1 1 1 1 1 2 2 3 3 3 2 2 3 3 3 4 3 3 3 3
3 3 3 2 1 1 1 1 1 1 2 2 3 3 3 2 1 2 2 3 3 2 2 2 2 2 2 1 1 1 1 2 2 2 2 2 2 2 3 3 2 2 3 3
3 2 1 1 1 1 2 1 0 1 1 1 1 2 2 2 3 2 1 2 2 2 1 2 1 1 1 1 1 1 1 1 1 1 1 1 2 2 2 2 2 2 2 2
2 2 2 2 2 2 1 1 1 1 1 1 1 1 1 0 1 1 1 1 1 1 1 0 0 0 0 0 0 0 1 1 1 1 1 1 2 2 2 2 3 2 2 2
2 2 1 2 1 1 1 1 2 2 2 2 2 2 1 0 0 1 1 1 1 1 1 1 1 1 0 0 0 0 1 1 1 1 1 1 1 1 2 2 2 2 2 1
Wind_Direction
233 240 196 215 219 193 187 190 197 231 221 236 223 210 194 174 167 158 162 164 170 180 196 185 169 167 165 169 172 168 159 165 199 225 235 260 1 334 341 350 342 316 322 312
299 287 217 247 255 213 211 197 207 224 253 244 222 151 161 174 178 177 188 206 207 199 205 201 193 191 184 183 178 162 167 179 186 175 178 219 271 303 354 350 345 359 355 341
253 300 34 268 237 206 202 208 184 212 230 186 170 188 189 188 188 192 199 211 216 215 218 220 208 195 196 203 189 169 175 174 168 168 179 212 210 63 36 356 4 358 345 359
164 90 228 247 251 186 176 237 219 221 219 191 195 186 177 185 185 189 190 194 211 222 227 217 186 171 170 153 153 153 164 184 191 186 207 220 163 140 299 323 352 348 341 344
137 189 263 287 245 182 172 274 229 188 186 151 119 76 347 224 182 184 187 193 204 201 194 171 162 151 140 136 131 138 183 218 217 196 201 187 180 233 262 301 1 353 340 333
137 171 228 244 270 215 106 284 237 180 180 166 128 160 246 208 179 190 167 153 155 143 120 131 150 136 133 131 128 182 220 220 204 180 175 178 199 228 304 92 5 343 343 332
163 211 255 263 290 86 163 242 241 204 198 180 193 213 207 161 157 172 156 143 121 117 117 147 148 137 140 144 180 215 206 159 147 151 165 169 162 139 78 59 40 11 356 343
148 196 258 293 90 170 221 263 202 210 198 181 190 165 138 140 150 149 134 111 114 112 100 122 136 135 142 177 204 140 113 103 104 126 163 135 118 54 42 63 36 353 350 341
191 215 252 281 241 257 180 189 246 197 226 162 151 169 138 151 164 160 153 146 128 128 109 82 124 136 157 196 142 121 111 102 83 44 48 96 117 98 30 41 27 327 329 321
260 272 286 300 320 10 58 132 291 151 149 154 166 169 154 154 155 154 157 141 126 120 109 112 32 95 170 166 141 132 130 132 127 93 49 50 61 95 146 231 276 309 300 299
268 284 326 334 336 337 5 34 49 45 86 162 164 172 171 166 162 162 153 140 139 145 160 202 179 160 165 150 136 136 143 160 202 108 82 28 1 309 259 249 224 228 255 254
229 234 212 259 288 312 7 8 32 56 18 21 168 176 169 163 160 156 158 154 157 159 175 209 201 185 173 149 142 144 155 179 197 219 21 52 2 346 336 290 278 254 241 240
241 246 222 260 291 287 269 316 19 78 132 278 208 172 161 155 161 162 161 162 175 179 189 195 193 200 195 166 153 156 173 194 207 207 210 242 278 312 334 345 345 319 293 281
244 202 307 281 280 292 298 11 49 51 48 48 117 140 147 147 155 166 177 183 173 157 168 178 177 209 213 175 164 172 178 191 207 219 216 226 243 254 268 304 324 328 324 305
264 247 227 263 304 323 346 76 70 36 40 36 64 128 160 168 178 190 187 163 141 138 161 174 183 231 220 176 173 180 184 198 210 218 219 225 237 249 267 284 297 310 325 324
290 330 350 288 289 304 324 210 195 224 197 154 135 187 186 178 178 172 174 167 160 182 201 201 226 237 211 187 183 189 202 201 197 197 204 214 229 238 257 271 287 298 302 309
211 256 265 267 275 281 277 261 239 220 188 201 213 202 160 148 153 176 216 213 185 198 208 214 232 241 212 198 190 197 210 208 186 189 208 219 224 231 242 256 271 283 287 288
219 230 229 226 240 263 273 267 235 212 188 193 160 148 162 173 186 200 210 165 83 349 257 235 229 224 226 216 194 189 193 201 204 210 221 230 237 237 242 256 266 275 288 290
258 248 247 238 233 231 236 232 224 208 173 160 157 189 204 197 183 182 174 154 167 236 268 264 239 211 221 221 179 171 182 201 220 231 229 234 247 254 254 258 263 267 275 284
329 302 277 250 241 222 217 200 190 198 199 172 168 180 178 193 186 180 169 192 221 226 236 245 238 231 227 219 186 185 199 212 224 238 238 238 244 254 258 260 262 267 274 279
335 327 315 280 272 250 202 175 177 203 217 186 183 197 207 221 202 175 164 239 269 248 222 222 224 229 223 206 187 197 208 218 225 234 240 244 249 259 265 266 267 271 274 279
326 319 305 295 282 291 259 171 178 197 215 217 210 184 178 206 210 207 218 223 240 238 227 231 244 234 202 183 201 210 219 224 229 237 242 246 249 257 266 272 271 272 272 271
297 290 291 278 252 248 281 202 186 182 194 208 206 202 206 216 202 191 253 263 239 242 252 244 236 215 184 192 214 223 229 232 239 244 248 250 251 254 262 268 269 273 274 274
308 307 299 294 235 154 268 271 235 203 208 222 219 210 198 207 261 246 228 230 229 232 256 247 228 216 200 203 206 217 231 247 255 256 259 264 265 268 271 270 269 277 279 281
295 302 308 306 251 243 240 249 248 229 240 262 273 256 223 205 214 241 235 229 221 212 250 248 207 180 174 198 197 215 231 247 249 252 256 261 269 277 283 280 271 269 275 283
305 304 290 262 240 232 232 210 212 239 226 262 301 301 303 231 188 201 210 216 199 181 177 184 176 137 186 181 135 222 250 264 270 273 277 276 284 293 292 286 285 286 282 278
335 339 340 327 307 260 206 193 205 230 225 213 248 289 303 330 206 205 167 142 127 133 137 129 142 170 215 212 323 281 267 270 282 293 296 295 299 299 296 293 294 295 291 281
Height
1493 1490 1491 1491 1491 1493 1496 1500 1506 1501 1499 1492 1488 1488 1489 1490 1491 1493 1494 1494 1495 1496 1497 1498 1499 1499 1500 1501 1502 1502 1503 1503 1503 1503 1502 1502 1501 1501 1500 1499 1498 1498 1497 1496
1493 1489 1489 1491 1489 1490 1491 1492 1495 1495 1495 1485 1485 1487 1488 1489 1490 1491 1492 1493 1494 1495 1496 1497 1497 1498 1498 1499 1500 1500 1500 1500 1500 1500 1500 1500 1499 1499 1498 1498 1497 1496 1495 1495
1502 1494 1491 1498 1489 1488 1489 1488 1490 1493 1488 1484 1485 1485 1486 1488 1489 1490 1491 1492 1493 1493 1494 1495 1496 1497 1497 1498 1498 1498 1498 1498 1498 1498 1498 1497 1497 1497 1496 1495 1495 1494 1494 1493
1506 1501 1509 1494 1481 1481 1484 1485 1484 1483 1482 1481 1482 1483 1484 1485 1486 1488 1489 1491 1491 1492 1493 1494 1495 1495 1497 1497 1497 1497 1497 1496 1496 1496 1495 1495 1494 1494 1494 1493 1493 1492 1491 1491
1510 1510 1503 1489 1481 1481 1484 1485 1480 1481 1480 1481 1482 1483 1484 1485 1485 1486 1488 1489 1490 1491 1491 1492 1493 1493 1495 1495 1495 1495 1495 1495 1494 1493 1493 1492 1492 1492 1492 1491 1491 1490 1490 1489
1507 1507 1508 1490 1478 1477 1481 1487 1479 1479 1479 1480 1482 1486 1484 1483 1484 1486 1486 1487 1488 1489 1490 1490 1491 1491 1492 1492 1493 1493 1493 1493 1492 1491 1491 1490 1490 1490 1490 1490 1489 1489 1488 1487
1504 1504 1496 1482 1477 1477 1490 1487 1477 1477 1477 1478 1479 1480 1480 1481 1483 1484 1485 1486 1486 1487 1488 1488 1489 1490 1490 1490 1491 1492 1492 1491 1490 1489 1489 1489 1489 1488 1488 1488 1487 1487 1486 1486
1504 1504 1498 1479 1477 1481 1481 1476 1476 1476 1476 1476 1477 1478 1479 1480 1481 1482 1483 1484 1485 1485 1487 1487 1488 1488 1488 1489 1490 1490 1490 1489 1489 1488 1488 1487 1487 1487 1486 1486 1486 1485 1484 1483
1494 1492 1482 1478 1477 1476 1476 1476 1476 1476 1476 1476 1477 1478 1478 1479 1480 1481 1482 1483 1484 1484 1485 1486 1486 1487 1487 1488 1488 1488 1488 1488 1487 1487 1486 1486 1486 1485 1485 1484 1484 1483 1482 1482
1487 1482 1479 1477 1476 1476 1476 1476 1475 1475 1475 1476 1476 1477 1477 1478 1479 1480 1480 1481 1482 1483 1483 1484 1485 1485 1486 1487 1487 1487 1487 1486 1486 1486 1485 1485 1484 1484 1483 1483 1482 1481 1480 1480
1485 1481 1478 1476 1476 1476 1475 1475 1474 1475 1475 1475 1475 1475 1476 1477 1478 1479 1479 1480 1481 1481 1482 1482 1483 1484 1485 1485 1485 1485 1485 1485 1485 1484 1484 1483 1483 1483 1482 1481 1480 1479 1479 1478
1483 1478 1479 1477 1476 1476 1475 1474 1474 1474 1474 1474 1474 1474 1474 1475 1476 1477 1478 1478 1479 1480 1481 1481 1482 1482 1483 1483 1483 1483 1483 1483 1483 1483 1482 1482 1482 1481 1481 1480 1479 1478 1478 1476
1477 1476 1476 1476 1475 1475 1475 1474 1474 1474 1473 1473 1473 1473 1473 1474 1475 1476 1477 1477 1478 1478 1479 1480 1480 1481 1481 1481 1482 1482 1481 1481 1481 1481 1481 1480 1480 1479 1479 1479 1478 1477 1476 1474
1475 1475 1474 1474 1474 1474 1474 1474 1474 1473 1473 1473 1473 1473 1473 1473 1474 1475 1475 1476 1477 1478 1478 1478 1479 1479 1480 1480 1480 1480 1480 1480 1480 1480 1479 1479 1479 1478 1478 1477 1475 1474 1474 1472
1473 1474 1474 1473 1473 1473 1473 1473 1473 1472 1472 1472 1472 1472 1473 1473 1474 1474 1475 1475 1476 1477 1477 1477 1477 1478 1478 1478 1478 1478 1478 1478 1478 1478 1477 1478 1478 1477 1476 1475 1474 1472 1471 1470
1471 1472 1472 1472 1471 1471 1472 1472 1471 1471 1471 1471 1471 1471 1472 1473 1473 1473 1474 1475 1475 1475 1476 1476 1477 1477 1477 1477 1477 1477 1477 1477 1476 1476 1476 1476 1476 1475 1474 1473 1472 1470 1469 1468
1469 1469 1469 1469 1469 1469 1470 1470 1470 1469 1470 1470 1470 1470 1471 1471 1472 1472 1473 1473 1474 1475 1475 1475 1475 1475 1475 1475 1475 1475 1475 1474 1474 1474 1474 1474 1474 1473 1472 1471 1470 1468 1467 1466
1467 1467 1468 1468 1468 1468 1468 1468 1469 1469 1469 1469 1469 1470 1470 1470 1470 1470 1471 1472 1472 1473 1474 1474 1474 1474 1474 1473 1473 1473 1473 1473 1473 1473 1473 1472 1471 1471 1470 1469 1468 1466 1465 1464
1464 1465 1465 1466 1466 1466 1466 1467 1467 1467 1467 1468 1468 1468 1468 1469 1469 1469 1470 1470 1470 1471 1472 1472 1472 1472 1471 1472 1472 1472 1472 1471 1471 1471 1470 1470 1469 1468 1467 1467 1465 1464 1463 1461
1462 1463 1463 1463 1464 1464 1464 1465 1465 1466 1466 1466 1467 1467 1467 1467 1467 1468 1468 1468 1469 1469 1470 1470 1470 1470 1469 1470 1470 1470 1470 1469 1469 1468 1468 1467 1466 1466 1465 1464 1463 1462 1460 1459
1461 1461 1461 1461 1462 1462 1463 1463 1464 1464 1464 1465 1465 1465 1465 1466 1466 1466 1467 1467 1468 1468 1468 1468 1467 1467 1467 1467 1468 1468 1467 1467 1467 1466 1465 1465 1464 1463 1462 1461 1460 1459 1458 1456
1461 1460 1460 1460 1460 1461 1462 1462 1463 1463 1463 1463 1464 1464 1464 1464 1465 1465 1466 1466 1466 1466 1466 1465 1465 1465 1465 1465 1465 1465 1465 1464 1464 1464 1463 1462 1461 1460 1460 1459 1458 1457 1455 1454
1461 1460 1459 1459 1459 1460 1461 1462 1462 1462 1462 1462 1462 1463 1463 1463 1463 1463 1464 1464 1464 1464 1464 1464 1463 1463 1463 1463 1463 1463 1462 1462 1461 1461 1460 1460 1459 1458 1457 1456 1455 1454 1453 1452
1459 1459 1459 1458 1459 1459 1460 1460 1461 1461 1461 1461 1462 1461 1461 1462 1462 1462 1463 1463 1462 1462 1462 1462 1462 1462 1461 1461 1461 1460 1460 1460 1459 1459 1458 1457 1456 1455 1454 1453 1452 1452 1450 1449
1458 1458 1457 1457 1458 1458 1459 1459 1459 1460 1460 1460 1461 1460 1460 1461 1461 1461 1461 1461 1461 1460 1461 1460 1460 1460 1460 1459 1458 1458 1458 1458 1457 1456 1456 1455 1454 1453 1452 1451 1450 1448 1447 1446
1457 1457 1457 1457 1457 1457 1457 1458 1458 1458 1459 1459 1459 1459 1459 1459 1459 1460 1460 1459 1459 1459 1459 1459 1458 1458 1458 1457 1456 1456 1456 1455 1455 1454 1453 1452 1451 1450 1449 1448 1447 1446 1444 1443
1457 1456 1456 1456 1456 1456 1456 1457 1457 1457 1457 1457 1457 1457 1457 1457 1457 1458 1458 1458 1458 1457 1457 1456 1456 1456 1455 1454 1454 1453 1453 1453 1452 1452 1451 1450 1449 1448 1446 1445 1444 1442 1441 1440